{"data":{"norad_id":65342,"epoch":"2026-09-20T14:24:48.893760Z","epoch_age_seconds":108768,"freshness":"FRESH","line1":"1 65342U 25189V   26263.60056590  .00018687  00000+0  61200-3 0  9996","line2":"2 65342  53.1607  19.6198 0000902  71.5445 288.5655 15.31722349 60883","mean_motion":15.31722349,"eccentricity":9.02e-5,"inclination_deg":53.1607,"raan_deg":19.6198,"arg_perigee_deg":71.5445,"mean_anomaly_deg":288.5655,"bstar":0.000612,"rev_number":6088,"period_min":94.011816236808,"perigee_km":470.05561213383,"apogee_km":471.29113752545,"semimajor_km":6848.8103748296,"source":"CELESTRAK","updated_at":"2026-09-21T09:00:35.572942Z"}}